TimeEDT,TemperatureF,Dew PointF,Humidity,Sea Level PressureIn,VisibilityMPH,Wind Direction,Wind SpeedMPH,Gust SpeedMPH,PrecipitationIn,Events,Conditions,WindDirDegrees,DateUTC
12:53 AM,37.9,35.1,89,29.53,7.0,West,9.2,-,0.01,Rain,Light Rain,270,2012-11-01 04:53:00
1:53 AM,37.0,34.0,89,29.53,7.0,West,6.9,-,0.01,Rain,Light Rain,260,2012-11-01 05:53:00
2:53 AM,37.0,34.0,89,29.54,5.0,Variable,5.8,-,0.02,Rain,Light Rain,0,2012-11-01 06:53:00
4:42 AM,37.0,34.0,89,29.50,2.5,WSW,6.9,-,0.00,Rain,Light Rain,240,2012-11-01 08:42:00
4:53 AM,37.0,34.0,89,29.54,2.5,WSW,6.9,19.6,0.00,,Overcast,250,2012-11-01 08:53:00
5:17 AM,37.0,34.0,89,29.51,3.0,WSW,10.4,-,0.01,Rain,Light Rain,250,2012-11-01 09:17:00
5:24 AM,37.0,34.0,89,29.51,2.5,WSW,6.9,-,0.01,Rain,Light Rain,250,2012-11-01 09:24:00
5:32 AM,37.0,34.0,89,29.51,3.0,Variable,5.8,-,0.01,Rain,Light Rain,0,2012-11-01 09:32:00
5:53 AM,37.0,34.0,89,29.54,4.0,WSW,9.2,19.6,0.01,Rain,Light Rain,240,2012-11-01 09:53:00
6:53 AM,37.0,35.1,93,29.55,3.0,West,8.1,-,0.01,,Overcast,270,2012-11-01 10:53:00
7:23 AM,37.0,35.1,93,29.52,2.5,West,6.9,-,0.01,,Overcast,260,2012-11-01 11:23:00
7:32 AM,37.9,35.1,89,29.52,3.0,West,9.2,-,0.01,,Overcast,270,2012-11-01 11:32:00
7:53 AM,37.9,35.1,89,29.56,3.0,West,8.1,-,0.01,,Overcast,260,2012-11-01 11:53:00
8:24 AM,37.9,35.1,89,29.54,2.5,West,8.1,-,0.01,Rain,Light Rain,260,2012-11-01 12:24:00
8:53 AM,37.9,35.1,89,29.57,2.5,West,11.5,17.3,0.01,Rain,Light Rain,260,2012-11-01 12:53:00
9:00 AM,37.9,35.1,89,29.55,3.0,West,9.2,18.4,0.00,Rain,Light Rain,270,2012-11-01 13:00:00
9:22 AM,37.9,35.1,89,29.55,2.5,WSW,8.1,-,0.00,Rain,Light Rain,250,2012-11-01 13:22:00
9:30 AM,37.9,35.1,89,29.55,4.0,Variable,6.9,-,0.00,,Overcast,0,2012-11-01 13:30:00
9:53 AM,39.0,35.1,86,29.59,5.0,West,8.1,-,0.01,Rain,Light Rain,270,2012-11-01 13:53:00
10:53 AM,39.0,35.1,86,29.59,6.0,West,10.4,19.6,0.00,Rain,Light Rain,270,2012-11-01 14:53:00
11:53 AM,39.0,35.1,86,29.60,10.0,West,10.4,18.4,0.00,,Overcast,260,2012-11-01 15:53:00
12:45 PM,39.0,35.1,86,29.57,6.0,West,8.1,19.6,N/A,,Overcast,270,2012-11-01 16:45:00
12:53 PM,39.9,35.1,83,29.60,6.0,West,9.2,18.4,0.00,Rain,Light Rain,260,2012-11-01 16:53:00
1:48 PM,39.2,35.6,87,29.56,10.0,West,11.5,24.2,0.01,,Overcast,270,2012-11-01 17:48:00
1:53 PM,41.0,36.0,82,29.59,10.0,West,12.7,24.2,0.01,Rain,Light Rain,280,2012-11-01 17:53:00
2:26 PM,39.9,35.1,83,29.56,10.0,West,12.7,19.6,0.00,,Overcast,270,2012-11-01 18:26:00
2:53 PM,39.9,35.1,83,29.58,9.0,West,10.4,16.1,0.00,Rain,Light Rain,280,2012-11-01 18:53:00
3:28 PM,41.0,35.1,79,29.56,10.0,West,12.7,19.6,0.00,,Overcast,280,2012-11-01 19:28:00
3:53 PM,39.9,35.1,83,29.60,10.0,West,11.5,20.7,0.00,Rain,Light Rain,270,2012-11-01 19:53:00
4:00 PM,39.9,35.1,83,29.57,9.0,West,8.1,17.3,0.00,Rain,Light Rain,270,2012-11-01 20:00:00
4:30 PM,39.9,35.1,83,29.57,10.0,West,11.5,-,0.00,,Overcast,280,2012-11-01 20:30:00
4:53 PM,39.9,35.1,83,29.60,10.0,West,8.1,-,0.00,,Overcast,270,2012-11-01 20:53:00
5:47 PM,39.2,35.6,87,29.59,8.0,West,10.4,18.4,0.00,Rain,Light Rain,280,2012-11-01 21:47:00
5:48 PM,39.0,35.1,86,29.62,8.0,WNW,9.2,18.4,0.00,Rain,Light Rain,290,2012-11-01 21:48:00
6:06 PM,39.0,35.1,86,29.59,10.0,West,9.2,-,0.00,,Overcast,280,2012-11-01 22:06:00
6:53 PM,37.9,35.1,89,29.65,8.0,West,9.2,-,0.01,Rain,Light Rain,270,2012-11-01 22:53:00
7:53 PM,37.9,34.0,86,29.66,6.0,West,9.2,18.4,0.02,Rain,Light Rain,270,2012-11-01 23:53:00
8:53 PM,37.9,34.0,86,29.66,4.0,West,10.4,-,0.01,Rain,Light Rain,280,2012-11-02 00:53:00
9:53 PM,37.0,34.0,89,29.67,7.0,West,15.0,23.0,0.01,,Overcast,270,2012-11-02 01:53:00
10:53 PM,37.0,33.1,86,29.67,10.0,West,8.1,19.6,0.00,Rain,Light Rain,270,2012-11-02 02:53:00
11:53 PM,37.0,33.1,86,29.67,10.0,West,10.4,-,0.01,Rain,Light Rain,270,2012-11-02 03:53:00